This is the latest recevied weather packets stored in our database for station/object W4GAP. If no packets are shown the sender has not sent any weather packets the latest 10 day(s).
| Time | Temp. | Humidity | Pressure | Rain* | Wind** | Luminosity | Snow |
|---|---|---|---|---|---|---|---|
| 1777396494 | 15.56° C | 99% | 1019 hPa | 0 mm | - | 73 W/m² | - |
| 1777396191 | 15° C | 99% | 1018.9 hPa | 0 mm | - | 80 W/m² | - |
| 1777395887 | 15° C | 99% | 1018.8 hPa | 0 mm | - | 77 W/m² | - |
| 1777395582 | 15° C | 99% | 1018.8 hPa | 0 mm | - | 76 W/m² | - |
| 1777395278 | 15° C | 99% | 1019 hPa | 0 mm | - | 56 W/m² | - |
| 1777394977 | 14.44° C | 99% | 1019.2 hPa | 0 mm | - | 86 W/m² | - |
| 1777394673 | 15° C | 99% | 1019.2 hPa | 0 mm | - | 49 W/m² | - |
| 1777394369 | 15° C | 99% | 1019.1 hPa | 0 mm | - | 72 W/m² | - |
| 1777394066 | 14.44° C | 99% | 1019 hPa | 0 mm | - | 81 W/m² | - |
| 1777393761 | 14.44° C | 99% | 1019.2 hPa | 0 mm | - | 55 W/m² | - |
| 1777393455 | 14.44° C | 99% | 1019.3 hPa | 0 mm | - | 51 W/m² | - |
| 1777393151 | 14.44° C | 99% | 1019.4 hPa | 0 mm | - | 67 W/m² | - |
| 1777392848 | 14.44° C | 99% | 1019.2 hPa | 0 mm | - | 80 W/m² | - |
| 1777392543 | 14.44° C | 99% | 1018.7 hPa | 0 mm | - | 102 W/m² | - |
| 1777392239 | 13.89° C | 99% | 1018.6 hPa | 0 mm | - | 52 W/m² | - |
| 1777391934 | 13.89° C | 99% | 1018 hPa | 0 mm | - | 40 W/m² | - |
| 1777391629 | 13.89° C | 99% | 1018.1 hPa | 0 mm | - | 36 W/m² | - |
| 1777391326 | 13.89° C | 99% | 1017.9 hPa | 0 mm | - | 39 W/m² | - |
| 1777391023 | 13.89° C | 99% | 1019.4 hPa | 0 mm | - | 59 W/m² | - |
| 1777390718 | 13.89° C | 99% | 1020.2 hPa | 0 mm | - | 52 W/m² | - |
| 1777390416 | 13.89° C | 99% | 1020.1 hPa | 0 mm | - | 40 W/m² | - |
| 1777390112 | 13.89° C | 99% | 1019.9 hPa | 0 mm | - | 85 W/m² | - |
| 1777389809 | 13.89° C | 99% | 1020.3 hPa | 0 mm | - | 49 W/m² | - |
| 1777389506 | 13.89° C | 99% | 1019.9 hPa | 0 mm | - | 53 W/m² | - |
| 1777389202 | 13.89° C | 99% | 1020.1 hPa | 0 mm | - | 49 W/m² | - |
* Rain latest hour (hover to see other rain measurements)
** Current wind speed in m/s (hover to see current wind gust speed)